カタログに戻る

STARLINK-4335

運用中通信SSO
NORAD 53215·PAYLOAD·🇺🇸 United States

打ち上げ Jul 22, 2022 から Vandenberg Space Force Base

Loading…

次のパス (今後24時間)

TLE

最新Source: CelesTrak SupGP

元期: Sep 15, 2026, 01:41 UTC

1 53215C 22084AC  26258.07062500  .00068144  00000+0  21151-2 0  2587
2 53215  97.2837 313.8259 0001441  87.9887  29.4503 15.33407433    19

AllMySatでSTARLINK-4335をリアルタイム追跡

Download on the App Store